ASA305 PHNL-PHOG

Flight info

Callsign ASA305
Flight time 0h 23m
Altitude 17000
Route PALAY3 LNY CAMPS4
Aircraft B77W/H-SDE1E2E3FGHIJ2J3J4J5M1RWXY/LB1D1

Departure

Time 2026-05-04 02:58
Airport Daniel K. Inouye International Airport (PHNL)

Arrival

Time 2026-05-04 03:21
Airport Kahului International Airport (PHOG)
Time Latitude Longitude Altitude Speed Heading
2026-05-04 02:23 21.32886 -157.92322 29 ft 0 kts 319°
2026-05-04 02:36 21.32885 -157.92322 29 ft 0 kts 319°
2026-05-04 02:41 21.32885 -157.92321 29 ft 0 kts 319°
2026-05-04 02:47 21.32877 -157.92313 29 ft 2 kts 308°
2026-05-04 02:47 21.32867 -157.92299 28 ft 2 kts 298°
2026-05-04 02:47 21.32860 -157.92282 29 ft 2 kts 281°
2026-05-04 02:47 21.32860 -157.92265 26 ft 2 kts 255°
2026-05-04 02:48 21.32866 -157.92248 26 ft 2 kts 231°
2026-05-04 02:48 21.32878 -157.92237 28 ft 2 kts 206°
2026-05-04 02:48 21.32883 -157.92234 27 ft 0 kts 196°
2026-05-04 02:50 21.32879 -157.92235 27 ft 2 kts 196°
2026-05-04 02:50 21.32854 -157.92243 27 ft 4 kts 194°
2026-05-04 02:51 21.32820 -157.92250 29 ft 6 kts 189°
2026-05-04 02:51 21.32777 -157.92251 29 ft 7 kts 179°
2026-05-04 02:51 21.32726 -157.92254 29 ft 8 kts 183°
2026-05-04 02:51 21.32667 -157.92257 29 ft 9 kts 181°
2026-05-04 02:52 21.32598 -157.92258 29 ft 10 kts 180°
2026-05-04 02:52 21.32530 -157.92234 29 ft 11 kts 150°
2026-05-04 02:52 21.32461 -157.92197 29 ft 12 kts 153°
2026-05-04 02:52 21.32388 -157.92152 29 ft 13 kts 149°
2026-05-04 02:53 21.32310 -157.92103 29 ft 13 kts 149°
2026-05-04 02:53 21.32227 -157.92051 29 ft 14 kts 150°
2026-05-04 02:53 21.32140 -157.91999 29 ft 15 kts 150°
2026-05-04 02:53 21.32049 -157.91943 29 ft 15 kts 150°
2026-05-04 02:54 21.31953 -157.91885 29 ft 16 kts 150°
2026-05-04 02:54 21.31865 -157.91831 29 ft 11 kts 160°
2026-05-04 02:54 21.31794 -157.91862 29 ft 12 kts 223°
2026-05-04 02:54 21.31740 -157.91935 29 ft 13 kts 231°
2026-05-04 02:55 21.31621 -157.92100 29 ft 15 kts 233°
2026-05-04 02:55 21.31556 -157.92192 29 ft 16 kts 233°
2026-05-04 02:55 21.31487 -157.92291 29 ft 17 kts 233°
2026-05-04 02:56 21.31414 -157.92394 29 ft 18 kts 233°
2026-05-04 02:56 21.31338 -157.92501 29 ft 16 kts 233°
2026-05-04 02:56 21.31294 -157.92571 29 ft 10 kts 247°
2026-05-04 02:56 21.31324 -157.92637 29 ft 11 kts 321°
2026-05-04 02:57 21.31393 -157.92677 29 ft 12 kts 353°
2026-05-04 02:57 21.31455 -157.92627 29 ft 12 kts 51°
2026-05-04 02:57 21.31546 -157.92499 29 ft 38 kts 53°
2026-05-04 02:57 21.31850 -157.92067 29 ft 116 kts 53°
2026-05-04 02:58 21.32319 -157.91403 46 ft 169 kts 53°
2026-05-04 02:58 21.33029 -157.90380 1001 ft 157 kts 52°
2026-05-04 02:58 21.33709 -157.89452 2050 ft 160 kts 52°
2026-05-04 02:58 21.34420 -157.88449 2621 ft 185 kts 55°
2026-05-04 02:59 21.35256 -157.87253 2902 ft 218 kts 53°
2026-05-04 02:59 21.36239 -157.85896 3535 ft 238 kts 52°
2026-05-04 02:59 21.37265 -157.84496 4617 ft 238 kts 55°
2026-05-04 02:59 21.37957 -157.82956 5745 ft 228 kts 82°
2026-05-04 03:00 21.37811 -157.81216 6365 ft 247 kts 110°
2026-05-04 03:00 21.36942 -157.79580 7162 ft 257 kts 130°
2026-05-04 03:00 21.35605 -157.78257 7957 ft 266 kts 140°
2026-05-04 03:00 21.34110 -157.76992 8727 ft 278 kts 141°
2026-05-04 03:01 21.32554 -157.75700 9551 ft 289 kts 141°
2026-05-04 03:01 21.30937 -157.74354 10336 ft 298 kts 141°
2026-05-04 03:01 21.29255 -157.72943 10716 ft 325 kts 141°
2026-05-04 03:01 21.27396 -157.71375 10934 ft 356 kts 141°
2026-05-04 03:02 21.25402 -157.69682 11537 ft 372 kts 141°
2026-05-04 03:02 21.23351 -157.67935 12459 ft 379 kts 142°
2026-05-04 03:02 21.21295 -157.66180 13713 ft 378 kts 142°
2026-05-04 03:02 21.19222 -157.64410 14569 ft 382 kts 142°
2026-05-04 03:03 21.17163 -157.62653 14985 ft 384 kts 142°
2026-05-04 03:03 21.15063 -157.60861 14984 ft 384 kts 142°
2026-05-04 03:03 21.12988 -157.59083 14987 ft 381 kts 141°
2026-05-04 03:03 21.11080 -157.57117 14985 ft 380 kts 133°
2026-05-04 03:04 21.09412 -157.54931 14991 ft 377 kts 127°
2026-05-04 03:04 21.07981 -157.52572 14987 ft 376 kts 122°
2026-05-04 03:04 21.06649 -157.50199 14982 ft 374 kts 121°
2026-05-04 03:04 21.05329 -157.47824 14976 ft 370 kts 121°
2026-05-04 03:05 21.04005 -157.45447 14986 ft 375 kts 121°
2026-05-04 03:05 21.02652 -157.43032 14994 ft 381 kts 121°
2026-05-04 03:05 21.01274 -157.40587 15002 ft 387 kts 121°
2026-05-04 03:05 20.99888 -157.38132 14989 ft 383 kts 121°
2026-05-04 03:06 20.98511 -157.35699 14982 ft 383 kts 121°
2026-05-04 03:06 20.97123 -157.33248 14991 ft 384 kts 121°
2026-05-04 03:06 20.95739 -157.30805 14988 ft 384 kts 121°
2026-05-04 03:06 20.94356 -157.28367 14813 ft 383 kts 121°
2026-05-04 03:07 20.92961 -157.25908 14341 ft 386 kts 121°
2026-05-04 03:07 20.91574 -157.23462 13889 ft 384 kts 121°
2026-05-04 03:07 20.90196 -157.21031 13366 ft 380 kts 121°
2026-05-04 03:07 20.88832 -157.18625 12897 ft 376 kts 121°
2026-05-04 03:08 20.87481 -157.16241 12419 ft 372 kts 121°
2026-05-04 03:08 20.86147 -157.13889 11974 ft 367 kts 121°
2026-05-04 03:08 20.84845 -157.11593 11540 ft 363 kts 121°
2026-05-04 03:08 20.83539 -157.09292 11094 ft 360 kts 121°
2026-05-04 03:09 20.82246 -157.07014 10652 ft 356 kts 121°
2026-05-04 03:09 20.80976 -157.04778 10419 ft 346 kts 121°
2026-05-04 03:09 20.79745 -157.02611 10264 ft 335 kts 120°
2026-05-04 03:09 20.78547 -157.00504 10119 ft 324 kts 120°
2026-05-04 03:10 20.77394 -156.98479 9966 ft 315 kts 120°
2026-05-04 03:10 20.76328 -156.96473 9720 ft 303 kts 112°
2026-05-04 03:10 20.75693 -156.94426 9396 ft 284 kts 105°
2026-05-04 03:10 20.75189 -156.92445 8989 ft 272 kts 104°
2026-05-04 03:11 20.74694 -156.90493 8677 ft 271 kts 105°
2026-05-04 03:11 20.74192 -156.88556 8357 ft 270 kts 105°
2026-05-04 03:11 20.73684 -156.86628 8079 ft 269 kts 105°
2026-05-04 03:11 20.73172 -156.84707 7784 ft 268 kts 105°
2026-05-04 03:12 20.72656 -156.82788 7467 ft 268 kts 106°
2026-05-04 03:12 20.72313 -156.81521 7257 ft 267 kts 106°
2026-05-04 03:12 20.71629 -156.79000 6876 ft 266 kts 106°
2026-05-04 03:12 20.71112 -156.77098 6571 ft 265 kts 106°
2026-05-04 03:13 20.70770 -156.75843 6354 ft 264 kts 106°
2026-05-04 03:13 20.70257 -156.73961 6047 ft 263 kts 106°
2026-05-04 03:13 20.69745 -156.72084 5747 ft 262 kts 106°
2026-05-04 03:13 20.69071 -156.69620 5359 ft 260 kts 105°
2026-05-04 03:14 20.68741 -156.68370 5150 ft 256 kts 102°
2026-05-04 03:14 20.68705 -156.66543 4874 ft 245 kts 81°
2026-05-04 03:14 20.68974 -156.64751 4584 ft 242 kts 82°
2026-05-04 03:14 20.69212 -156.62975 4316 ft 240 kts 82°
2026-05-04 03:15 20.69438 -156.61241 4230 ft 229 kts 82°
2026-05-04 03:15 20.69648 -156.59616 4122 ft 218 kts 81°
2026-05-04 03:15 20.70062 -156.58136 4019 ft 202 kts 59°
2026-05-04 03:15 20.70924 -156.56985 3988 ft 199 kts 39°
2026-05-04 03:16 20.72092 -156.56169 3720 ft 209 kts 36°
2026-05-04 03:16 20.73314 -156.55290 3441 ft 212 kts 37°
2026-05-04 03:16 20.74511 -156.54405 3212 ft 205 kts 38°
2026-05-04 03:16 20.75651 -156.53554 3089 ft 191 kts 38°
2026-05-04 03:17 20.76689 -156.52779 2905 ft 179 kts 38°
2026-05-04 03:17 20.77701 -156.52022 2719 ft 178 kts 38°
2026-05-04 03:17 20.78694 -156.51279 2469 ft 169 kts 37°
2026-05-04 03:17 20.79611 -156.50595 2264 ft 152 kts 37°
2026-05-04 03:18 20.80434 -156.49978 2060 ft 135 kts 35°
2026-05-04 03:18 20.81152 -156.49442 1940 ft 128 kts 35°
2026-05-04 03:18 20.81955 -156.48844 1761 ft 146 kts 36°
2026-05-04 03:18 20.82776 -156.48229 1529 ft 139 kts 33°
2026-05-04 03:19 20.83526 -156.47668 1361 ft 127 kts 35°
2026-05-04 03:19 20.84248 -156.47130 1186 ft 125 kts 36°
2026-05-04 03:19 20.84962 -156.46580 1007 ft 129 kts 36°
2026-05-04 03:19 20.85701 -156.46043 957 ft 129 kts 34°
2026-05-04 03:20 20.86434 -156.45509 756 ft 127 kts 36°
2026-05-04 03:20 20.87144 -156.44937 579 ft 128 kts 35°
2026-05-04 03:20 20.87877 -156.44423 330 ft 123 kts 36°
2026-05-04 03:20 20.88566 -156.43888 138 ft 122 kts 36°
2026-05-04 03:21 20.89260 -156.43373 49 ft 116 kts 34°
2026-05-04 03:21 20.89765 -156.43002 47 ft 55 kts 35°
2026-05-04 03:21 20.89933 -156.42887 48 ft 17 kts 11°
2026-05-04 03:21 20.90004 -156.42955 49 ft 17 kts 258°
2026-05-04 03:22 20.89923 -156.43041 50 ft 17 kts 215°
2026-05-04 03:22 20.89830 -156.43112 50 ft 17 kts 214°
2026-05-04 03:22 20.89735 -156.43184 49 ft 17 kts 216°
2026-05-04 03:22 20.89639 -156.43254 50 ft 17 kts 215°
2026-05-04 03:23 20.89544 -156.43325 49 ft 17 kts 215°
2026-05-04 03:23 20.89449 -156.43398 47 ft 15 kts 223°
2026-05-04 03:23 20.89447 -156.43472 49 ft 9 kts 314°
2026-05-04 03:23 20.89482 -156.43520 50 ft 6 kts 308°